Regional Weather Roundup
Issued by NWS

Home | Current Version | Previous Version | Graphics & Text | Print | Product List | Glossary On
Versions: 1 2 3 4 5 6 7 8 9 10 11 12 13 14 15 16 17 18 19 20 21 22 23 24 25 26 27
000
ASUS45 KBOU 200710
RWRCO

WEATHER ROUNDUP FOR COLORADO
NATIONAL WEATHER SERVICE DENVER/BOULDER CO
100 AM MDT SUN MAY 20 2018

NOTE: "FAIR" INDICATES FEW OR NO CLOUDS BELOW 12000 FEET WITH NO
SIGNIFICANT WEATHER AND/OR OBSTRUCTIONS TO VISIBILITY.

COZ001>005-013-030-031-200800-
...NORTHWEST COLORADO...

CITY           SKY/WX    TMP DP  RH WIND       PRES   REMARKS
CRAIG          FAIR      45  40  82 E5        30.14S
HAYDEN         FAIR      42  39  89 SE8       30.16S
MEEKER         FAIR      43  38  82 E6        30.13R
RANGELY        FAIR      51  42  73 E7        30.08S
RABBIT EARS PA PTSUNNY   32  32 100 SE3       30.28F FOG
STEAMBOAT SPGS FAIR      39  39 100 CALM      30.16S
WALDEN         MOCLDY    32  30  93 S6        30.23S WCI  26
$$

COZ006>008-011-200800-
...WEST CENTRAL VALLEYS...

CITY           SKY/WX    TMP DP  RH WIND       PRES   REMARKS
GRAND JUNCTION FAIR      63  36  36 E14       30.00R
MONTROSE       FAIR      57  35  43 E13G22    30.08S
EAGLE          FAIR      40  36  86 CALM      30.20R
RIFLE          FAIR      49  40  71 SW3       30.10R
DELTA          FAIR      59  34  39 NE6       30.05S
NUCLA          FAIR      55  28  35 E10       30.07F
$$

COZ017>023-064>068-200800-
...SOUTHWEST COLORADO...

CITY           SKY/WX    TMP DP  RH WIND       PRES   REMARKS
DURANGO        FAIR      47  28  47 CALM      30.07S
CORTEZ         FAIR      45  22  40 NE5       30.01F
PAGOSA SPRINGS FAIR      43  22  43 CALM      30.14S
TELLURIDE      FAIR      42  28  59 SE6       30.24S
WOLF CREEK PAS FAIR      32  27  80 N5        30.42S WCI  27
$$

COZ009-010-012-014-032>034-037-058>063-200800-
...CENTRAL COLORADO...

CITY           SKY/WX    TMP DP  RH WIND       PRES   REMARKS
ASPEN          FAIR      41  30  65 S5        30.18S
BUENA VISTA    CLOUDY    43  39  85 N3        30.28S
COPPER MTN     FAIR      36  30  80 S15       30.37F
BERTHOUD PASS  FAIR      28  16  59 SW9G16    30.38S WCI  20
COTTONWOOD PAS CLOUDY    43  41  93 CALM      30.33S
GUNNISON       FAIR      40  36  86 N8        30.22F
GRANBY         FAIR      34  33  96 CALM      30.24S
KREMMLING      FAIR      43  36  75 CALM      30.21F
LEADVILLE      CLOUDY    35  35 100 CALM      30.30S
MONARCH PASS   SNOW      32  32 100 MISG      30.46F VSB<1/4
SALIDA         CLOUDY    46  42  84 E8        30.34F
SUNLIGHT       FAIR      32  32 100 E7        30.34S WCI  26
WILKERSON PASS SNOW      32  32 100 S7        30.38F VSB 1/4 WCI  26
$$

COZ069>075-200800-
...SAN LUIS VALLEY/SANGRE DE CRISTO MOUNTAINS...

CITY           SKY/WX    TMP DP  RH WIND       PRES   REMARKS
ALAMOSA        FAIR      45  34  65 E9        30.19F
DEL NORTE      FAIR      40  30  68 NE3       30.23S
LA VETA PASS   MIX PCPN  34  32  93 N16G24    30.42F VSB 3/4 WCI  23
SAGUACHE       NOT AVBL
$$

COZ035-036-038>040-200800-
...NORTHERN COLORADO FRONT RANGE...

CITY           SKY/WX    TMP DP  RH WIND       PRES   REMARKS
DENVER INTL AP CLOUDY    42  40  92 E9        30.26F FOG
AURORA         CLOUDY    41  41 100 E9        30.27F
FRONT RANGE AP CLOUDY    43  42  96 E9        30.28F FOG
ERIE MUNI ARPT CLOUDY    45  42  89 E6        30.32F
BOULDER MUN AP LGT RAIN  45  43  93 CALM      30.26F
CENTENNIAL     CLOUDY    42  40  92 CALM      30.26F
BROOMFIELD     CLOUDY    43  41  93 E5        30.27F
FORT COLLINS   CLOUDY    43  41  93 SE10      30.27F
LONGMONT       CLOUDY    46  44  90 E5        30.28F FOG
$$

COZ041-046-047-076>085-087-088-200800-
...PIKES PEAK/PALMER DIVIDE AND SOUTHERN FOOTHILLS...

CITY           SKY/WX    TMP DP  RH WIND       PRES   REMARKS
COLO. SPRINGS  CLOUDY    44  39  82 SE5       30.27F
A. F. ACADEMY  CLOUDY    42  40  92 N8        30.27S
SCHRIEVER AFB  NOT AVBL
CHEYENNE MTN   LGT RAIN  41  39  93 N7        30.22F FOG
ELLICOTT         N/A    N/A N/A N/A E7        30.26F
FALCON         CLOUDY    40  38  90 N6        30.29S
FORT CARSON    CLOUDY    45  41  85 SE5       30.25F
LIMON          CLOUDY    40  40 100 N12       30.25F
MONUMENT HILL  CLOUDY    36  36 100 CALM      30.29F
CANON CITY     CLOUDY    48  45  87 SE6       30.26F
WALSENBURG     CLOUDY    45  45 100 E3        30.26F
TRINIDAD       CLOUDY    47  44  90 N5        30.25F
$$

COZ042>045-048>051-090-091-200800-
...NORTHEAST COLORADO...

CITY           SKY/WX    TMP DP  RH WIND       PRES   REMARKS
GREELEY ARPT   CLOUDY    44  40  85 E8        30.28F
AKRON          CLOUDY    41  40  96 NE10      30.26F
BURLINGTON     CLOUDY    44  42  93 N15G22    30.22S
WRAY           CLOUDY    45  43  93 N12G18    30.23F
YUMA           CLOUDY    41  39  93 N8        30.24F
STERLING       CLOUDY    43  41  93 N8        30.26F
HOLYOKE        CLOUDY    46  43  87 NW8       30.25S
FORT MORGAN    CLOUDY    42  39  91 N7        30.29F
$$

COZ086-089-092>099-200800-
...SOUTHEAST COLORADO...

CITY           SKY/WX    TMP DP  RH WIND       PRES   REMARKS
PUEBLO         CLOUDY    50  43  77 E6        30.24F
LA JUNTA       MOCLDY    49  41  74 N9        30.22F
LAMAR          MOCLDY    48  41  76 N10       30.17F
SPRINGFIELD      N/A     46  45  96 N18       30.18R
$$




USA.gov is the U.S. government's official web portal to all federal, state and local government web resources and services.